| time (UTC) | temp F | wind direction | speed MPH | gust MPH | rain 1hr in | rain 24hr in | rain mn in | humidity % | barometer mb |
| 20260906051550 | 73 | 0 | 0.0 | 0.0 | 0.00 | 0.09 | 0.00 | 89 | 1014.0 |
| 20260906050048 | 73 | 0 | 0.0 | 0.0 | 0.00 | 0.09 | 0.00 | 89 | 1014.0 |
| 20260906044542 | 73 | 0 | 0.0 | 0.0 | 0.00 | 0.09 | 0.00 | 89 | 1014.0 |
| 20260906043050 | 73 | 0 | 0.0 | 0.0 | 0.00 | 0.09 | 0.00 | 89 | 1014.1 |
| 20260906041547 | 73 | 0 | 0.0 | 1.0 | 0.00 | 0.09 | 0.00 | 89 | 1014.2 |
| 20260906040055 | 73 | 0 | 0.0 | 0.0 | 0.00 | 0.09 | 0.00 | 88 | 1014.1 |
| 20260906034601 | 74 | 0 | 0.0 | 1.0 | 0.00 | 0.09 | 0.09 | 88 | 1014.4 |
| 20260906033047 | 74 | 0 | 0.0 | 1.0 | 0.00 | 0.09 | 0.09 | 88 | 1014.4 |
| 20260906031549 | 74 | 0 | 0.0 | 1.0 | 0.00 | 0.09 | 0.09 | 88 | 1014.4 |
| 20260906030054 | 74 | 0 | 0.0 | 2.0 | 0.00 | 0.09 | 0.09 | 88 | 1014.3 |
| 20260906024553 | 74 | 0 | 0.0 | 0.0 | 0.00 | 0.09 | 0.09 | 88 | 1014.1 |
| 20260906023049 | 74 | 0 | 0.0 | 0.0 | 0.00 | 0.09 | 0.09 | 87 | 1014.1 |
| 20260906021557 | 75 | 0 | 0.0 | 0.0 | 0.00 | 0.09 | 0.09 | 87 | 1014.1 |
| 20260906020056 | 75 | 0 | 0.0 | 0.0 | 0.00 | 0.09 | 0.09 | 86 | 1014.0 |
| 20260906014552 | 76 | 0 | 0.0 | 0.0 | 0.00 | 0.09 | 0.09 | 85 | 1014.0 |
| 20260906013051 | 76 | 0 | 0.0 | 0.0 | 0.00 | 0.09 | 0.09 | 85 | 1013.9 |
| 20260906011552 | 77 | 0 | 0.0 | 0.0 | 0.00 | 0.09 | 0.09 | 83 | 1013.5 |
| 20260906010123 | 78 | 0 | 0.0 | 1.0 | 0.00 | 0.09 | 0.09 | 81 | 1013.5 |
| 20260906004614 | 78 | 0 | 0.0 | 1.0 | 0.00 | 0.09 | 0.09 | 81 | 1013.5 |
| 20260906003054 | 78 | 0 | 0.0 | 2.0 | 0.00 | 0.09 | 0.09 | 79 | 1013.2 |
| 20260906001601 | 79 | 0 | 0.0 | 0.0 | 0.00 | 0.09 | 0.09 | 80 | 1013.0 |
| 20260906000048 | 80 | 0 | 0.0 | 0.0 | 0.00 | 0.09 | 0.09 | 78 | 1013.1 |
| 20260905234545 | 82 | 0 | 0.0 | 0.0 | 0.00 | 0.09 | 0.09 | 75 | 1012.9 |
| 20260905233050 | 83 | 340 | 0.0 | 4.0 | 0.00 | 0.09 | 0.09 | 70 | 1013.0 |
| 20260905231550 | 84 | 355 | 0.0 | 3.0 | 0.00 | 0.09 | 0.09 | 68 | 1012.8 |
| 20260905230043 | 85 | 355 | 1.0 | 4.0 | 0.00 | 0.09 | 0.09 | 65 | 1012.8 |
| 20260905224550 | 86 | 0 | 1.0 | 5.0 | 0.00 | 0.09 | 0.09 | 64 | 1012.8 |
| 20260905223053 | 87 | 301 | 2.0 | 5.0 | 0.00 | 0.09 | 0.09 | 62 | 1012.9 |
| 20260905221554 | 87 | 355 | 0.0 | 4.0 | 0.00 | 0.09 | 0.09 | 61 | 1013.0 |
| 20260905220049 | 87 | 331 | 1.0 | 4.0 | 0.00 | 0.09 | 0.09 | 59 | 1013.0 |
| 20260905214553 | 86 | 294 | 1.0 | 9.0 | 0.00 | 0.09 | 0.09 | 63 | 1013.1 |
| 20260905213051 | 86 | 342 | 3.0 | 7.0 | 0.01 | 0.09 | 0.09 | 63 | 1013.3 |
| 20260905211549 | 85 | 277 | 1.0 | 5.0 | 0.01 | 0.09 | 0.09 | 64 | 1013.3 |
| 20260905210057 | 84 | 226 | 1.0 | 5.0 | 0.01 | 0.09 | 0.09 | 66 | 1013.1 |
| 20260905204552 | 83 | 255 | 1.0 | 9.0 | 0.01 | 0.09 | 0.09 | 69 | 1013.2 |
| 20260905203048 | 81 | 226 | 2.0 | 4.0 | 0.00 | 0.08 | 0.08 | 73 | 1013.4 |
| 20260905201547 | 80 | 225 | 2.0 | 10.0 | 0.00 | 0.08 | 0.08 | 75 | 1013.6 |
| 20260905200111 | 79 | 0 | 0.0 | 3.0 | 0.00 | 0.08 | 0.08 | 79 | 1013.7 |
| 20260905194542 | 78 | 226 | 0.0 | 3.0 | 0.00 | 0.08 | 0.08 | 82 | 1014.0 |
| 20260905193052 | 77 | 226 | 0.0 | 4.0 | 0.01 | 0.08 | 0.08 | 83 | 1014.1 |
| 20260905191546 | 77 | 0 | 2.0 | 4.0 | 0.01 | 0.08 | 0.08 | 83 | 1013.8 |
| 20260905190048 | 78 | 0 | 0.0 | 5.0 | 0.03 | 0.08 | 0.08 | 82 | 1014.1 |
| 20260905184554 | 77 | 0 | 0.0 | 4.0 | 0.05 | 0.08 | 0.08 | 83 | 1013.3 |
| 20260905183052 | 77 | 0 | 1.0 | 3.0 | 0.07 | 0.07 | 0.07 | 85 | 1013.4 |
| 20260905181546 | 76 | 0 | 0.0 | 2.0 | 0.07 | 0.07 | 0.07 | 85 | 1013.9 |
| 20260905180057 | 75 | 0 | 1.0 | 4.0 | 0.05 | 0.05 | 0.05 | 85 | 1014.4 |
| 20260905174552 | 80 | 71 | 1.0 | 22.0 | 0.03 | 0.03 | 0.03 | 73 | 1015.3 |
| 20260905173051 | 93 | 328 | 9.0 | 19.0 | 0.00 | 0.00 | 0.00 | 50 | 1015.2 |
| 20260905171540 | 97 | 335 | 4.0 | 9.0 | 0.00 | 0.00 | 0.00 | 49 | 1015.0 |
| 20260905170050 | 98 | 314 | 2.0 | 9.0 | 0.00 | 0.00 | 0.00 | 48 | 1015.0 |
| 20260905164549 | 97 | 0 | 2.0 | 5.0 | 0.00 | 0.00 | 0.00 | 50 | 1015.0 |
| 20260905163042 | 97 | 339 | 2.0 | 6.0 | 0.00 | 0.00 | 0.00 | 49 | 1015.2 |
| 20260905161552 | 96 | 5 | 1.0 | 5.0 | 0.00 | 0.00 | 0.00 | 52 | 1015.3 |
| 20260905160051 | 95 | 289 | 1.0 | 7.0 | 0.00 | 0.00 | 0.00 | 54 | 1015.7 |
| 20260905154541 | 95 | 278 | 2.0 | 7.0 | 0.00 | 0.00 | 0.00 | 55 | 1015.4 |
| 20260905153051 | 95 | 161 | 2.0 | 5.0 | 0.00 | 0.00 | 0.00 | 55 | 1015.2 |
| 20260905151558 | 94 | 0 | 1.0 | 4.0 | 0.00 | 0.00 | 0.00 | 57 | 1015.4 |
| 20260905150050 | 93 | 227 | 2.0 | 5.0 | 0.00 | 0.00 | 0.00 | 59 | 1015.3 |
| 20260905144554 | 93 | 0 | 0.0 | 4.0 | 0.00 | 0.00 | 0.00 | 60 | 1015.3 |
| 20260905143050 | 90 | 0 | 0.0 | 3.0 | 0.00 | 0.00 | 0.00 | 64 | 1015.4 |
| 20260905141541 | 89 | 236 | 0.0 | 3.0 | 0.00 | 0.00 | 0.00 | 67 | 1015.2 |
| 20260905140054 | 88 | 233 | 1.0 | 5.0 | 0.00 | 0.00 | 0.00 | 68 | 1015.3 |
| 20260905134549 | 87 | 324 | 0.0 | 4.0 | 0.00 | 0.00 | 0.00 | 71 | 1015.3 |
| 20260905133042 | 84 | 325 | 1.0 | 3.0 | 0.00 | 0.00 | 0.00 | 76 | 1015.5 |
| 20260905131602 | 82 | 309 | 1.0 | 4.0 | 0.00 | 0.00 | 0.00 | 80 | 1015.6 |
| 20260905130048 | 80 | 0 | 1.0 | 4.0 | 0.00 | 0.00 | 0.00 | 84 | 1015.8 |
| 20260905124546 | 78 | 336 | 1.0 | 4.0 | 0.00 | 0.00 | 0.00 | 86 | 1015.7 |
| 20260905123102 | 76 | 0 | 0.0 | 0.0 | 0.00 | 0.00 | 0.00 | 89 | 1015.6 |
| 20260905121551 | 75 | 0 | 0.0 | 0.0 | 0.00 | 0.00 | 0.00 | 91 | 1015.5 |
| 20260905120050 | 74 | 0 | 0.0 | 0.0 | 0.00 | 0.00 | 0.00 | 92 | 1015.5 |
| 20260905114548 | 74 | 0 | 0.0 | 0.0 | 0.00 | 0.00 | 0.00 | 93 | 1015.4 |
| 20260905113040 | 73 | 0 | 0.0 | 0.0 | 0.00 | 0.00 | 0.00 | 92 | 1015.2 |
| 20260905111556 | 73 | 0 | 0.0 | 0.0 | 0.00 | 0.00 | 0.00 | 92 | 1015.0 |
| 20260905110049 | 74 | 0 | 0.0 | 0.0 | 0.00 | 0.00 | 0.00 | 93 | 1014.8 |
| 20260905104544 | 74 | 0 | 0.0 | 0.0 | 0.00 | 0.00 | 0.00 | 92 | 1014.6 |
| 20260905103059 | 74 | 0 | 0.0 | 0.0 | 0.00 | 0.00 | 0.00 | 93 | 1014.6 |
| 20260905101550 | 73 | 0 | 0.0 | 0.0 | 0.00 | 0.00 | 0.00 | 93 | 1014.5 |
| 20260905100055 | 74 | 0 | 0.0 | 0.0 | 0.00 | 0.00 | 0.00 | 92 | 1014.5 |
| 20260905094546 | 74 | 0 | 0.0 | 0.0 | 0.00 | 0.00 | 0.00 | 92 | 1014.5 |
| 20260905093052 | 74 | 0 | 0.0 | 1.0 | 0.00 | 0.00 | 0.00 | 92 | 1014.4 |
| 20260905091552 | 74 | 0 | 0.0 | 2.0 | 0.00 | 0.00 | 0.00 | 92 | 1014.6 |
| 20260905090054 | 74 | 0 | 0.0 | 2.0 | 0.00 | 0.00 | 0.00 | 92 | 1014.4 |
| 20260905084605 | 74 | 320 | 1.0 | 3.0 | 0.00 | 0.00 | 0.00 | 92 | 1014.5 |
| 20260905083051 | 74 | 0 | 0.0 | 3.0 | 0.00 | 0.00 | 0.00 | 91 | 1014.8 |
| 20260905081547 | 74 | 0 | 0.0 | 1.0 | 0.00 | 0.00 | 0.00 | 91 | 1014.8 |
| 20260905080109 | 75 | 0 | 0.0 | 0.0 | 0.00 | 0.00 | 0.00 | 91 | 1014.9 |
| 20260905074551 | 75 | 0 | 0.0 | 2.0 | 0.00 | 0.00 | 0.00 | 90 | 1015.2 |
| 20260905073050 | 75 | 0 | 0.0 | 2.0 | 0.00 | 0.00 | 0.00 | 89 | 1015.3 |
| 20260905071546 | 76 | 0 | 0.0 | 2.0 | 0.00 | 0.00 | 0.00 | 88 | 1015.3 |
| 20260905070053 | 76 | 321 | 2.0 | 4.0 | 0.00 | 0.00 | 0.00 | 88 | 1015.4 |
| 20260905064559 | 77 | 0 | 0.0 | 1.0 | 0.00 | 0.00 | 0.00 | 87 | 1015.4 |
| 20260905063049 | 77 | 0 | 0.0 | 1.0 | 0.00 | 0.00 | 0.00 | 87 | 1015.7 |
| 20260905061551 | 77 | 0 | 0.0 | 1.0 | 0.00 | 0.00 | 0.00 | 87 | 1015.9 |
| 20260905060057 | 78 | 0 | 0.0 | 0.0 | 0.00 | 0.00 | 0.00 | 86 | 1016.2 |
| 20260905054551 | 77 | 0 | 0.0 | 0.0 | 0.00 | 0.00 | 0.00 | 87 | 1016.3 |
| 20260905053107 | 77 | 0 | 0.0 | 2.0 | 0.00 | 0.00 | 0.00 | 87 | 1016.4 |